| time (UTC) | temp F | wind direction | speed knots | gust knots | rain 1hr in | rain 24hr in | rain mn in | humidity % | barometer mb |
| 20260507061029 | 87 | 247 | 1.7 | 1.7 | 0.00 | 0.00 | 0.00 | 35 | 1016.7 |
| 20260507055529 | 75 | 247 | 0.0 | 4.3 | 0.00 | 0.00 | 0.00 | 50 | 1016.7 |
| 20260507054029 | 64 | 270 | 0.0 | 1.7 | 0.00 | 0.00 | 0.00 | 65 | 1016.6 |
| 20260507052529 | 57 | 315 | 0.0 | 0.0 | 0.00 | 0.00 | 0.00 | 78 | 1016.4 |
| 20260507051029 | 53 | 315 | 0.0 | 0.0 | 0.00 | 0.00 | 0.00 | 80 | 1016.4 |
| 20260507045529 | 50 | 292 | 0.0 | 0.0 | 0.00 | 0.00 | 0.00 | 82 | 1016.3 |
| 20260507044029 | 49 | 292 | 1.7 | 1.7 | 0.00 | 0.00 | 0.00 | 81 | 1016.0 |
| 20260507042529 | 48 | 292 | 0.0 | 0.0 | 0.00 | 0.00 | 0.00 | 81 | 1016.1 |
| 20260507041029 | 49 | 270 | 0.0 | 0.0 | 0.00 | 0.00 | 0.00 | 80 | 1015.7 |
| 20260507035529 | 49 | 180 | 0.0 | 0.0 | 0.00 | 0.00 | 0.00 | 80 | 1015.7 |
| 20260507034029 | 50 | 180 | 0.9 | 0.9 | 0.00 | 0.00 | 0.00 | 80 | 1015.5 |
| 20260507032529 | 49 | 180 | 1.7 | 1.7 | 0.00 | 0.00 | 0.00 | 80 | 1015.3 |
| 20260507031029 | 49 | 270 | 0.0 | 0.0 | 0.00 | 0.00 | 0.00 | 79 | 1015.2 |
| 20260507025529 | 49 | 247 | 0.0 | 0.0 | 0.00 | 0.00 | 0.00 | 79 | 1015.1 |
| 20260507024030 | 50 | 292 | 0.0 | 0.0 | 0.00 | 0.00 | 0.00 | 78 | 1015.1 |
| 20260507022529 | 50 | 247 | 0.9 | 0.9 | 0.00 | 0.00 | 0.00 | 78 | 1015.1 |
| 20260507021029 | 50 | 247 | 0.0 | 0.0 | 0.00 | 0.00 | 0.00 | 77 | 1015.1 |
| 20260507015529 | 50 | 292 | 0.0 | 0.0 | 0.00 | 0.00 | 0.00 | 77 | 1015.1 |
| 20260507014029 | 51 | 292 | 0.0 | 0.0 | 0.00 | 0.00 | 0.00 | 75 | 1014.9 |
| 20260507012529 | 53 | 270 | 0.0 | 0.0 | 0.00 | 0.00 | 0.00 | 75 | 1014.9 |
| 20260507011029 | 53 | 270 | 1.7 | 6.1 | 0.00 | 0.00 | 0.00 | 75 | 1014.8 |
| 20260507005529 | 54 | 292 | 1.7 | 1.7 | 0.00 | 0.00 | 0.00 | 75 | 1014.6 |
| 20260507004029 | 53 | 270 | 5.2 | 5.2 | 0.00 | 0.00 | 0.00 | 75 | 1014.5 |
| 20260507002529 | 54 | 292 | 0.0 | 0.0 | 0.00 | 0.00 | 0.00 | 74 | 1014.5 |
| 20260507001029 | 54 | 270 | 0.0 | 1.7 | 0.00 | 0.00 | 0.00 | 74 | 1014.7 |
| 20260506235529 | 55 | 270 | 0.0 | 0.0 | 0.00 | 0.00 | 0.00 | 75 | 1014.7 |
| 20260506234029 | 55 | 225 | 1.7 | 1.7 | 0.00 | 0.00 | 0.00 | 75 | 1014.5 |
| 20260506232529 | 55 | 247 | 1.7 | 1.7 | 0.00 | 0.00 | 0.00 | 74 | 1014.4 |
| 20260506231029 | 55 | 247 | 2.6 | 5.2 | 0.00 | 0.00 | 0.00 | 75 | 1014.4 |
| 20260506225529 | 55 | 225 | 1.7 | 5.2 | 0.00 | 0.00 | 0.00 | 75 | 1014.0 |
| 20260506224029 | 56 | 270 | 3.5 | 4.3 | 0.00 | 0.00 | 0.00 | 75 | 1013.7 |
| 20260506222529 | 56 | 270 | 6.1 | 6.1 | 0.00 | 0.00 | 0.00 | 76 | 1013.7 |
| 20260506221029 | 56 | 247 | 0.9 | 8.7 | 0.00 | 0.00 | 0.00 | 76 | 1013.4 |
| 20260506215529 | 56 | 270 | 0.0 | 1.7 | 0.00 | 0.00 | 0.00 | 76 | 1013.0 |
| 20260506214029 | 56 | 202 | 2.6 | 2.6 | 0.00 | 0.00 | 0.00 | 77 | 1013.0 |
| 20260506212529 | 57 | 247 | 4.3 | 4.3 | 0.00 | 0.00 | 0.00 | 77 | 1012.8 |
| 20260506211030 | 57 | 247 | 0.0 | 1.7 | 0.00 | 0.00 | 0.00 | 77 | 1012.6 |
| 20260506205530 | 57 | 292 | 7.0 | 7.0 | 0.00 | 0.00 | 0.00 | 78 | 1012.2 |
| 20260506204030 | 58 | 270 | 9.6 | 9.6 | 0.00 | 0.00 | 0.00 | 79 | 1012.1 |
| 20260506202530 | 57 | 292 | 3.5 | 7.8 | 0.00 | 0.00 | 0.00 | 78 | 1011.9 |
| 20260506201030 | 57 | 270 | 3.5 | 3.5 | 0.00 | 0.00 | 0.00 | 76 | 1011.4 |
| 20260506195530 | 58 | 292 | 1.7 | 1.7 | 0.00 | 0.00 | 0.00 | 73 | 1011.0 |
| 20260506194030 | 60 | 270 | 0.9 | 12.2 | 0.00 | 0.00 | 0.00 | 69 | 1010.7 |
| 20260506192530 | 62 | 315 | 3.5 | 5.2 | 0.00 | 0.00 | 0.00 | 60 | 1010.2 |
| 20260506191030 | 62 | 337 | 7.0 | 7.0 | 0.00 | 0.00 | 0.00 | 56 | 1009.1 |
| 20260506185530 | 63 | 0 | 8.7 | 8.7 | 0.00 | 0.04 | 0.00 | 56 | 1008.4 |
| 20260506184030 | 64 | 315 | 8.7 | 8.7 | 0.00 | 0.04 | 0.00 | 56 | 1008.0 |
| 20260506182530 | 67 | 0 | 13.0 | 13.0 | 0.00 | 0.04 | 0.00 | 51 | 1007.9 |
| 20260506181030 | 71 | 270 | 13.9 | 14.8 | 0.00 | 0.04 | 0.00 | 45 | 1007.5 |
| 20260506175530 | 71 | 202 | 0.0 | 0.0 | 0.00 | 0.04 | 0.00 | 40 | 1006.6 |
| 20260506174030 | 72 | 112 | 1.7 | 2.6 | 0.00 | 0.04 | 0.00 | 40 | 1006.1 |
| 20260506172530 | 73 | 157 | 1.7 | 3.5 | 0.00 | 0.04 | 0.00 | 39 | 1005.7 |
| 20260506171030 | 75 | 90 | 4.3 | 4.3 | 0.00 | 0.04 | 0.00 | 37 | 1005.1 |
| 20260506165530 | 78 | 90 | 1.7 | 3.5 | 0.00 | 0.04 | 0.00 | 33 | 1005.1 |
| 20260506164030 | 80 | 112 | 1.7 | 1.7 | 0.00 | 0.04 | 0.00 | 33 | 1005.3 |
| 20260506162530 | 79 | 112 | 0.0 | 4.3 | 0.00 | 0.04 | 0.00 | 34 | 1005.8 |
| 20260506161030 | 79 | 135 | 2.6 | 5.2 | 0.00 | 0.04 | 0.00 | 33 | 1005.7 |
| 20260506155530 | 80 | 112 | 2.6 | 8.7 | 0.00 | 0.04 | 0.00 | 34 | 1006.0 |
| 20260506154030 | 80 | 135 | 7.0 | 7.0 | 0.00 | 0.04 | 0.00 | 35 | 1006.1 |
| 20260506152530 | 80 | 112 | 1.7 | 5.2 | 0.00 | 0.04 | 0.00 | 35 | 1006.3 |
| 20260506151030 | 79 | 45 | 2.6 | 2.6 | 0.00 | 0.04 | 0.00 | 35 | 1006.6 |
| 20260506145530 | 81 | 67 | 0.9 | 0.9 | 0.00 | 0.04 | 0.00 | 34 | 1006.7 |
| 20260506144030 | 81 | 112 | 1.7 | 1.7 | 0.00 | 0.04 | 0.00 | 35 | 1006.8 |
| 20260506142530 | 80 | 45 | 1.7 | 1.7 | 0.00 | 0.04 | 0.00 | 32 | 1007.0 |
| 20260506141030 | 83 | 112 | 1.7 | 1.7 | 0.00 | 0.04 | 0.00 | 31 | 1007.1 |
| 20260506135530 | 85 | 90 | 0.0 | 0.0 | 0.00 | 0.04 | 0.00 | 30 | 1007.4 |
| 20260506134030 | 83 | 157 | 0.0 | 0.0 | 0.00 | 0.04 | 0.00 | 31 | 1007.5 |
| 20260506132530 | 81 | 90 | 0.9 | 5.2 | 0.00 | 0.04 | 0.00 | 33 | 1007.7 |
| 20260506131030 | 82 | 112 | 3.5 | 5.2 | 0.00 | 0.04 | 0.00 | 31 | 1008.1 |
| 20260506125530 | 80 | 202 | 0.9 | 3.5 | 0.00 | 0.04 | 0.00 | 34 | 1008.3 |
| 20260506124030 | 79 | 180 | 0.0 | 3.5 | 0.00 | 0.04 | 0.00 | 36 | 1008.3 |
| 20260506122530 | 80 | 112 | 4.3 | 4.3 | 0.00 | 0.04 | 0.00 | 35 | 1008.7 |
| 20260506121030 | 80 | 202 | 1.7 | 1.7 | 0.00 | 0.04 | 0.00 | 37 | 1008.8 |
| 20260506115530 | 80 | 112 | 2.6 | 3.5 | 0.00 | 0.04 | 0.00 | 36 | 1009.0 |
| 20260506114030 | 84 | 22 | 0.0 | 1.7 | 0.00 | 0.04 | 0.00 | 34 | 1009.2 |
| 20260506112530 | 84 | 270 | 0.0 | 0.0 | 0.00 | 0.04 | 0.00 | 37 | 1009.5 |
| 20260506111030 | 82 | 90 | 0.9 | 3.5 | 0.00 | 0.04 | 0.00 | 36 | 1009.8 |
| 20260506105530 | 81 | 112 | 1.7 | 5.2 | 0.00 | 0.04 | 0.00 | 38 | 1009.8 |
| 20260506104030 | 80 | 112 | 1.7 | 3.5 | 0.00 | 0.04 | 0.00 | 39 | 1010.2 |
| 20260506102530 | 79 | 67 | 0.0 | 1.7 | 0.00 | 0.04 | 0.00 | 40 | 1010.4 |
| 20260506101031 | 79 | 45 | 0.9 | 1.7 | 0.00 | 0.04 | 0.00 | 40 | 1010.5 |
| 20260506095530 | 80 | 67 | 0.0 | 1.7 | 0.00 | 0.04 | 0.00 | 39 | 1010.7 |
| 20260506094030 | 78 | 67 | 0.0 | 0.0 | 0.00 | 0.04 | 0.00 | 40 | 1010.9 |
| 20260506092530 | 82 | 0 | 1.7 | 1.7 | 0.00 | 0.04 | 0.00 | 39 | 1011.0 |
| 20260506091031 | 83 | 90 | 0.9 | 1.7 | 0.00 | 0.04 | 0.00 | 39 | 1011.1 |
| 20260506085531 | 83 | 180 | 0.0 | 0.9 | 0.00 | 0.04 | 0.00 | 38 | 1011.4 |
| 20260506084031 | 84 | 90 | 0.0 | 0.9 | 0.00 | 0.04 | 0.00 | 36 | 1011.6 |
| 20260506082531 | 88 | 157 | 3.5 | 3.5 | 0.00 | 0.04 | 0.00 | 35 | 1011.6 |
| 20260506081031 | 88 | 157 | 3.5 | 3.5 | 0.00 | 0.04 | 0.00 | 34 | 1011.5 |
| 20260506072531 | 73 | 135 | 0.0 | 1.7 | 0.00 | 0.04 | 0.00 | 54 | 1011.9 |
| 20260506071031 | 70 | 112 | 0.0 | 1.7 | 0.00 | 0.04 | 0.00 | 57 | 1011.8 |